Lincoln, NE

11:59 AM CDT on July 24, 2017 (GMT -0500)
Lincoln Municipal

Weather History for KLNK - June, 2013

Change the Weather History Date:

Saturday, June 15, 2013

  Actual Average Record
Temperature  
Mean Temperature 74 °F 73 °F  
Max Temperature 81 °F 84 °F 108 °F (1946)
Min Temperature 66 °F 61 °F 44 °F (1989)
Degree Days  
Heating Degree Days 0 0  
Month to date heating degree days 20 13  
Since 1 June heating degree days 20 13  
Since 1 July heating degree days 6326 6053  
Cooling Degree Days 9 8  
Month to date cooling degree days 57 92  
Year to date cooling degree days 144 171  
Since 1 June cooling degree days 57 92  
Growing Degree Days 24 (Base 50)    
Moisture  
Dew Point 65 °F    
Average Humidity 72    
Maximum Humidity 90    
Minimum Humidity 54    
Precipitation  
Precipitation 0.01 in 0.14 in 2.88 in (1925)
Month to date precipitation 1.24 2.19  
Year to date precipitation 17.09 12.53  
Snow  
Snow 0.00 in 0.00 in - ()
Month to date snowfall 0.0 0.0  
Since 1 July snowfall 27.5 25.9  
Snow Depth 0.00 in    
Sea Level Pressure  
Sea Level Pressure 29.87 in    
Wind  
Wind Speed 9 mph (South)    
Max Wind Speed 23 mph    
Max Gust Speed 29 mph    
Visibility 9 miles    
Events Rain    
T = Trace of Precipitation, MM = Missing Value Source: NWS Daily Summary

Daily Weather History Graph

Daily Weather History Graph

Search for Another Location

Airport or City:

Trip Planner

Search our weather history database for the weather conditions in past years. The results will help you decide how hot, cold, wet, or windy it might be!

Date:

Astronomy

Jun. 15, 2013 Rise Set
Actual Time 5:54 AM CDT 9:00 PM CDT
Civil Twilight 5:21 AM CDT 9:34 PM CDT
Nautical Twilight 4:38 AM CDT 10:16 PM CDT
Astronomical Twilight 3:48 AM CDT 11:07 PM CDT
Moon 12:33 PM CDT (6/15) 12:34 AM CDT (6/15)
Length of Visible Light 16h 12m
Length of Day
15h 05m
Waxing Crescent, 40% of the Moon is Illuminated
Jun 15
Waxing Crescent
Jun 16
First Quarter
Jun 23
Full
Jun 29
Last Quarter
Jul 8
New

Hourly Weather History & Observations

Time (CDT) Temp. Heat Index Dew Point Humidity Pressure Visibility Wind Dir Wind Speed Gust Speed Precip Events Conditions
12:54 AM 73.9 °F - 66.9 °F 79% 29.82 in 10.0 mi South 9.2 mph - N/A   Clear
1:54 AM 75.0 °F - 66.9 °F 76% 29.81 in 10.0 mi SSE 13.8 mph - N/A   Clear
2:54 AM 75.0 °F - 68.0 °F 79% 29.79 in 10.0 mi SSE 15.0 mph - N/A   Clear
3:54 AM 73.0 °F - 66.9 °F 81% 29.80 in 10.0 mi SSE 8.1 mph - N/A   Clear
4:54 AM 71.1 °F - 66.9 °F 87% 29.80 in 9.0 mi North 8.1 mph - N/A   Clear
5:54 AM 69.1 °F - 66.0 °F 90% 29.81 in 8.0 mi NNE 4.6 mph - N/A   Clear
6:54 AM 69.1 °F - 66.0 °F 90% 29.85 in 7.0 mi South 4.6 mph - N/A   Clear
7:54 AM 73.0 °F - 62.1 °F 68% 29.87 in 9.0 mi SSW 9.2 mph - N/A   Scattered Clouds
8:54 AM 75.9 °F - 61.0 °F 60% 29.86 in 10.0 mi South 11.5 mph - 0.01 in   Partly Cloudy
9:54 AM 79.0 °F - 60.1 °F 52% 29.87 in 10.0 mi West 15.0 mph 20.7 mph 0.00 in   Partly Cloudy
10:54 AM 77.0 °F - 66.0 °F 69% 29.93 in 9.0 mi NW 9.2 mph - N/A   Clear
11:54 AM 77.0 °F - 66.0 °F 69% 29.93 in 8.0 mi Calm Calm - N/A   Clear
12:54 PM 77.0 °F - 66.0 °F 69% 29.94 in 9.0 mi WSW 5.8 mph - N/A   Clear
1:54 PM 75.9 °F - 62.1 °F 62% 29.95 in 10.0 mi SSW 16.1 mph 23.0 mph 0.00 in Rain Light Rain
2:54 PM 75.9 °F - 62.1 °F 62% 29.89 in 10.0 mi SSE 12.7 mph - 0.00 in   Overcast
3:54 PM 80.1 °F 81.7 °F 64.0 °F 58% 29.86 in 10.0 mi SSW 12.7 mph 18.4 mph N/A   Scattered Clouds
4:54 PM 81.0 °F 82.5 °F 64.0 °F 56% 29.85 in 10.0 mi SSW 11.5 mph - N/A   Scattered Clouds
5:54 PM 80.1 °F 81.9 °F 64.9 °F 60% 29.86 in 10.0 mi SSW 12.7 mph - N/A   Scattered Clouds
6:54 PM 78.1 °F - 66.9 °F 68% 29.86 in 10.0 mi South 9.2 mph - N/A   Mostly Cloudy
7:54 PM 75.9 °F - 66.9 °F 74% 29.88 in 10.0 mi SSE 9.2 mph - N/A   Partly Cloudy
8:54 PM 73.0 °F - 66.9 °F 81% 29.89 in 10.0 mi SSE 10.4 mph - N/A   Clear
9:54 PM 71.1 °F - 66.0 °F 84% 29.90 in 9.0 mi SSE 11.5 mph - N/A   Clear
10:54 PM 68.0 °F - 64.9 °F 90% 29.92 in 9.0 mi SSE 3.5 mph - N/A   Clear
11:54 PM 68.0 °F - 64.9 °F 90% 29.93 in 9.0 mi SE 5.8 mph - N/A   Clear